Location: Antioch Church
(34.9543°N, 88.5145°W)
Time: 22:17:19
(UTC+00:00)

YAOGAN 1 - Pass Details

Date: 11 December 2019
Orbit: 619 x 621 km, 98.0° (Epoch: 22 January)

Event Time Altitude Azimuth Distance (km) Brightness Sun altitude
Rises 23:58:44 0° 148° (SSE) 2,882 5.8 -15.2°
Reaches altitude 10° 00:01:01 10° 141° (SE) 1,981 4.9 -15.6°
Maximum altitude 00:05:00 38° 73° (ENE) 950 3.0 -16.4°
Drops below altitude 10° 00:09:01 10° 5° (N) 1,993 4.9 -17.2°
Sets 00:11:19 0° 358° (N) 2,903 5.9 -17.7°
